Location: Detroit
(42.3310°N, 83.0460°W)
Time: 12:03:38
(UTC-05:00)

Vanguard 2 - Visible Passes

Search period start: 07 February 2023 00:00
Search period end: 17 February 2023 00:00
Orbit: 553 x 2930 km, 32.9° (Epoch: 06 February)

Date Brightness Start Highest point End Pass type
(mag) Time Alt. Az. Time Alt. Az. Time Alt. Az.
07 Feb 11.2 03:31:29 22° S 03:31:29 22° S 03:36:12 10° SSE visible
07 Feb 11.4 05:32:49 11° SW 05:32:49 11° SW 05:35:49 10° SW visible
07 Feb 10.5 18:51:12 10° S 18:57:33 20° SE 19:04:17 13° ESE visible
07 Feb 10.0 20:55:31 10° SW 21:05:37 46° SSE 21:05:37 46° SSE visible
07 Feb 11.0 23:03:17 10° WSW 23:06:56 24° WSW 23:06:56 24° WSW visible
08 Feb 11.3 03:47:33 19° S 03:47:33 19° S 03:51:34 10° SSE visible
08 Feb 10.3 19:06:29 10° SSW 19:13:41 25° SE 19:20:10 17° ESE visible
08 Feb 9.9 21:11:54 10° SW 21:21:29 51° S 21:21:29 51° S visible
08 Feb 11.1 23:20:02 10° WSW 23:22:49 21° WSW 23:22:49 21° WSW visible
09 Feb 11.4 04:03:37 15° S 04:03:37 15° S 04:06:25 10° S visible
09 Feb 10.1 19:22:13 10° SSW 19:29:55 31° SE 19:36:00 22° ESE visible
09 Feb 9.9 21:28:24 10° WSW 21:37:19 52° S 21:37:19 52° S visible
09 Feb 11.3 23:36:49 10° W 23:38:39 17° W 23:38:39 17° W visible
10 Feb 11.6 04:19:40 11° SSW 04:19:40 11° SSW 04:20:20 10° SSW visible
10 Feb 9.9 19:38:14 10° SW 19:46:15 37° SSE 19:51:48 26° ESE visible
10 Feb 9.9 21:45:00 10° WSW 21:53:07 51° SSW 21:53:07 51° SSW visible
10 Feb 11.4 23:53:38 10° W 23:54:26 13° W 23:54:26 13° W visible
11 Feb 9.8 19:54:28 10° SW 20:02:41 43° SSE 20:07:34 32° ESE visible
11 Feb 10.1 22:01:39 10° WSW 22:08:53 46° SW 22:08:53 46° SW visible
12 Feb 9.7 20:10:51 10° SW 20:19:14 48° SSE 20:23:18 37° ESE visible
12 Feb 10.2 22:18:21 10° WSW 22:24:37 40° SW 22:24:37 40° SW visible
13 Feb 9.9 18:21:33 10° SSW 18:27:29 27° SE 18:36:11 10° E visible
13 Feb 9.6 20:27:20 10° WSW 20:35:51 51° SSE 20:39:01 43° SE visible
13 Feb 10.4 22:35:06 10° W 22:40:20 34° WSW 22:40:20 34° WSW visible
14 Feb 9.7 18:37:34 10° SSW 18:43:49 33° SSE 18:53:24 10° E visible
14 Feb 9.6 20:43:53 10° WSW 20:52:32 53° S 20:54:44 48° SE visible
14 Feb 10.7 22:51:53 10° W 22:56:02 27° WSW 22:56:02 27° WSW visible
15 Feb 9.5 18:53:46 10° SW 19:00:14 38° SSE 19:09:06 13° E visible
15 Feb 9.6 21:00:31 10° WSW 21:09:15 53° S 21:10:25 51° SSE visible
15 Feb 10.9 23:08:45 10° W 23:11:44 21° WSW 23:11:44 21° WSW visible
16 Feb 9.4 19:10:08 10° SW 19:16:45 43° SSE 19:24:47 17° ESE visible
16 Feb 9.6 21:17:11 10° WSW 21:25:58 51° S 21:26:06 50° S visible
16 Feb 11.1 23:25:43 10° W 23:27:25 16° WSW 23:27:25 16° WSW visible
